Weather History for Truckee-Tahoe, CA

Change the Weather History Date:

Thursday, February 21, 2013

  Actual Average Record
Temperature  
Mean Temperature 22 °F -  
Max Temperature 35 °F 42 °F 67 °F (1977)
Min Temperature 10 °F 16 °F -3 °F (1990)
Degree Days  
Heating Degree Days 42    
Moisture  
Dew Point 13 °F    
Average Humidity 70    
Maximum Humidity 93    
Minimum Humidity 28    
Precipitation  
Precipitation 0.01 in - - ()
Snow  
Snow 0.00 in - - ()
Snow Depth 3.00 in    
Sea Level Pressure  
Sea Level Pressure 30.03 in    
Wind  
Wind Speed 3 mph (NW)    
Max Wind Speed 12 mph    
Max Gust Speed -    
Visibility 10 miles    
Events Snow    
Averages and records for this station are not official NWS values.
T = Trace of Precipitation, MM = Missing Value Source: NWS Daily Summary

Daily Weather History Graph

Daily Weather History Graph

Search for Another Location

Airport:

Trip Planner

Search our weather history database for the weather conditions in past years. The results will help you decide how hot, cold, wet, or windy it might be!

Date:

Astronomy

Feb. 21, 2013 Rise Set
Actual Time 6:44 AM PST 5:44 PM PST
Civil Twilight 6:16 AM PST 6:11 PM PST
Nautical Twilight 5:45 AM PST 6:43 PM PST
Astronomical Twilight 5:14 AM PST 7:14 PM PST
Moon 2:05 PM PST (2/21) 3:51 AM PST (2/21)
Length of Visible Light 11h 54m
Length of Day
11h 00m
Waxing Gibbous, 84% of the Moon is Illuminated
Feb 21
Waxing Gibbous
Feb 25
Full
Mar 4
Last Quarter
Mar 11
New
Mar 19
First Quarter

Hourly Weather History & Observations

Time (PST) Temp. Windchill Dew Point Humidity Pressure Visibility Wind Dir Wind Speed Gust Speed Precip Events Conditions
12:15 AM 17.6 °F 12.3 °F 14.0 °F 86% 29.92 in 10.0 mi North 3.5 mph - N/A   Clear
12:35 AM 17.6 °F 12.3 °F 14.0 °F 86% 29.92 in 10.0 mi North 3.5 mph - N/A   Clear
12:55 AM 17.6 °F - 14.0 °F 86% 29.92 in 10.0 mi Calm Calm - N/A   Clear
1:15 AM 15.8 °F 8.6 °F 12.2 °F 86% 29.91 in 10.0 mi SSE 4.6 mph - N/A   Clear
1:35 AM 17.6 °F 10.7 °F 14.0 °F 86% 29.93 in 10.0 mi NNW 4.6 mph - N/A   Mostly Cloudy
1:55 AM 19.4 °F 12.8 °F 15.8 °F 86% 29.93 in 10.0 mi WNW 4.6 mph - N/A   Overcast
2:15 AM 19.4 °F - 15.8 °F 86% 29.94 in 10.0 mi Calm Calm - N/A Snow Light Snow
2:35 AM 19.4 °F 14.3 °F 15.8 °F 86% 29.93 in 10.0 mi SSE 3.5 mph - N/A   Overcast
2:55 AM 19.4 °F - 15.8 °F 86% 29.93 in 10.0 mi Calm Calm - N/A   Overcast
3:15 AM 17.6 °F - 15.8 °F 93% 29.92 in 10.0 mi Calm Calm - N/A   Mostly Cloudy
3:35 AM 19.4 °F - 15.8 °F 86% 29.93 in 10.0 mi Calm Calm - N/A   Mostly Cloudy
3:55 AM 19.4 °F 12.8 °F 15.8 °F 86% 29.94 in 8.0 mi NNW 4.6 mph - N/A Snow Light Snow
4:15 AM 19.4 °F - 15.8 °F 86% 29.96 in 3.0 mi Calm Calm - N/A Snow Light Snow
4:35 AM 19.4 °F - 17.6 °F 93% 29.97 in 0.8 mi Calm Calm - 0.01 in Snow Light Snow
4:55 AM 19.4 °F 14.3 °F 17.6 °F 93% 29.98 in 10.0 mi SSW 3.5 mph - 0.01 in   Mostly Cloudy
5:15 AM 17.6 °F 10.7 °F 15.8 °F 93% 29.98 in 8.0 mi WSW 4.6 mph - N/A Snow Light Snow
5:35 AM 17.6 °F 10.7 °F 15.8 °F 93% 29.99 in 10.0 mi West 4.6 mph - N/A   Partly Cloudy
6:50 AM 10.4 °F 2.2 °F 6.8 °F 85% 29.97 in 10.0 mi SW 4.6 mph - N/A   Partly Cloudy
8:45 AM 19.4 °F - 15.8 °F 86% 30.06 in 10.0 mi Calm Calm - N/A   Scattered Clouds
9:45 AM 24.8 °F - 14.0 °F 64% 30.06 in 10.0 mi Calm Calm - N/A   Scattered Clouds
10:45 AM 28.4 °F 18.5 °F 14.0 °F 55% 30.06 in 10.0 mi NE 11.5 mph - N/A   Scattered Clouds
11:45 AM 30.2 °F 21.9 °F 12.2 °F 47% 30.06 in 10.0 mi North 9.2 mph - N/A   Partly Cloudy
12:45 PM 32.0 °F 26.4 °F 10.4 °F 41% 30.04 in 10.0 mi NW 5.8 mph - N/A   Partly Cloudy
2:55 PM 35.6 °F 29.9 °F 5.0 °F 28% 30.04 in 10.0 mi NNW 6.9 mph - N/A   Clear
4:45 PM 35.6 °F 28.6 °F 10.4 °F 35% 30.04 in 10.0 mi NNW 9.2 mph - N/A   Scattered Clouds
4:55 PM 35.6 °F 28.6 °F 10.4 °F 35% 30.04 in 10.0 mi NNW 9.2 mph - N/A   Clear
5:15 PM 33.8 °F 27.0 °F 8.6 °F 35% 30.05 in 10.0 mi North 8.1 mph - N/A   Clear
5:35 PM 32.0 °F 26.4 °F 8.6 °F 38% 30.05 in 10.0 mi NNW 5.8 mph - N/A   Clear
5:55 PM 32.0 °F 27.5 °F 8.6 °F 38% 30.06 in 10.0 mi NNW 4.6 mph - N/A   Clear
6:15 PM 30.2 °F 26.7 °F 12.2 °F 47% 30.07 in 10.0 mi SSW 3.5 mph - N/A   Clear
6:35 PM 26.6 °F - 12.2 °F 55% 30.07 in 10.0 mi Calm Calm - N/A   Clear
6:55 PM 24.8 °F 20.5 °F 14.0 °F 64% 30.08 in 10.0 mi South 3.5 mph - N/A   Clear
7:15 PM 24.8 °F - 14.0 °F 64% 30.08 in 10.0 mi Calm Calm - N/A   Clear
7:35 PM 24.8 °F - 14.0 °F 64% 30.08 in 10.0 mi Calm Calm - N/A   Clear
7:55 PM 24.8 °F - 10.4 °F 54% 30.08 in 10.0 mi Calm Calm - N/A   Clear
8:15 PM 23.0 °F - 14.0 °F 68% 30.09 in 10.0 mi Calm Calm - N/A   Clear
8:35 PM 24.8 °F 19.1 °F 14.0 °F 64% 30.09 in 10.0 mi South 4.6 mph - N/A   Clear
8:55 PM 23.0 °F - 12.2 °F 63% 30.11 in 10.0 mi Calm Calm - N/A   Clear
9:15 PM 23.0 °F - 12.2 °F 63% 30.11 in 10.0 mi Calm Calm - N/A   Clear
9:35 PM 21.2 °F 16.4 °F 14.0 °F 74% 30.12 in 10.0 mi ESE 3.5 mph - N/A   Clear
9:55 PM 19.4 °F - 14.0 °F 80% 30.12 in 10.0 mi Calm Calm - N/A   Clear
10:15 PM 21.2 °F - 12.2 °F 68% 30.13 in 10.0 mi Calm Calm - N/A   Clear
10:35 PM 21.2 °F - 14.0 °F 74% 30.13 in 10.0 mi Calm Calm - N/A   Clear
10:55 PM 19.4 °F - 14.0 °F 80% 30.13 in 10.0 mi Calm Calm - N/A   Clear
11:15 PM 17.6 °F - 12.2 °F 79% 30.13 in 10.0 mi Calm Calm - N/A   Clear
11:35 PM 19.4 °F - 12.2 °F 74% 30.13 in 10.0 mi Calm Calm - N/A   Clear
11:55 PM 19.4 °F 12.8 °F 10.4 °F 68% 30.12 in 10.0 mi SSW 4.6 mph - N/A   Clear